Regional Weather Roundup
Issued by NWS

Home | Current Version | Previous Version | Text Only | Print | Product List | Glossary On
Versions: 1 2 3 4 5 6 7 8 9 10 11 12 13 14 15 16 17 18 19 20 21 22 23 24 25 26 27 28 29 30 31 32 33 34 35 36 37 38 39 40 41 42 43 44 45 46 47 48 49 50
361
ASUS46 KLOX 101313
RWRCA

SOUTHERN CALIFORNIA WEATHER ROUNDUP
NATIONAL WEATHER SERVICE OXNARD CALIFORNIA
500 AM PST WED FEB 10 2016

NOTE: "FAIR" INDICATES FEW OR NO CLOUDS BELOW 12,000 FEET WITH NO
SIGNIFICANT WEATHER AND/OR OBSTRUCTIONS TO VISIBILITY.

  -  STATIONS PRECEEDED BY AN ASTERISK (*) ARE NOT NWS OR FAA
     STATIONS AND ARE NOT SUBJECT TO NWS AND FAA QUALITY CONTROL.

CAZ041-042-087-101400-
LA AND ORANGE COUNTY COASTAL AREAS


CITY           SKY/WX    TMP DP  RH WIND       PRES   REMARKS
L.A. DOWNTOWN  CLEAR     62  29  28 CALM      30.11R
L.A. AIRPORT   PTCLDY    65  28  24 NE5       30.11S
LONG BEACH     CLEAR     59  35  40 CALM      30.11R

CITY           SKY/WX    TMP DP  RH WIND       PRES   REMARKS
FULLERTON      CLEAR     55  36  48 E3        30.10R
HAWTHORNE      CLEAR     58  35  42 CALM      30.12R
*LEO CARRILLO    N/A     64  37  36 N2          N/A
*LOS ALAMITOS  FAIR      51  39  65 NE2       30.10R
*REDONDO BEACH   N/A     56  33  42 CALM      30.11S
SANTA ANA      CLEAR     55  39  54 CALM      30.11R
STA MONICA APT CLEAR     61  31  32 NE3       30.11S
*STA MON PIER    N/A     65  32  28 W1        30.04R
*UCLA            N/A     70  23  17 N6        30.09S

$$

CAZ547-548-048-101400-
LA COUNTY VALLEYS AND INLAND EMPIRE


CITY           SKY/WX    TMP DP  RH WIND       PRES   REMARKS
BURBANK        CLEAR     59  25  27 CALM      30.13R
VAN NUYS       CLEAR     54  31  41 CALM      30.14R

CITY           SKY/WX    TMP DP  RH WIND       PRES   REMARKS
*CHATSWORTH      N/A     54  32  42 CALM      30.14S
CHINO          CLEAR     46  36  68 CALM      30.16R
*CLAREMONT       N/A     58  24  27 N3          N/A
MARCH AFB      CLEAR     43  29  58 CALM      30.17R
ONTARIO        PTCLDY    54  30  40 CALM      30.15R
*PASADENA        N/A     61  32  33 CALM        N/A
RIVERSIDE      CLEAR     56  28  34 E3        30.15R
SAN BERNARDINO NOT AVBL
*SAN RAFAEL HI   N/A     71  18  13 CALM        N/A
*SAUGUS          N/A     58  25  28 CALM        N/A
*WHITEMAN AP   NOT AVBL
*WHITTIER HILL   N/A     71  19  14 E9          N/A
*WOODLAND HILL   N/A     48  30  49 S1          N/A

$$

CAZ054-055-101400-
LA AND SAN BERNARDINO COUNTY MOUNTAINS


CITY           SKY/WX    TMP DP  RH WIND       PRES   REMARKS
*ACTON           N/A     50  21  32 CALM        N/A
*BIG BEAR AIRP SUNNY     21  18  86 CALM      30.42S
*BIG PINES       N/A     47   6  18 CALM        N/A
SANDBERG       CLEAR    N/A N/A N/A NE9       30.32S

$$

CAZ028-029-059-060-099-101400-
ANTELOPE VALLEY AND SURROUNDING AREAS


CITY           SKY/WX    TMP DP  RH WIND       PRES   REMARKS
LANCASTER      CLEAR     32  25  75 CALM      30.29R
PALMDALE       CLEAR     37  26  64 S8        30.28S WCI  31
*POPPY PARK      N/A     43  22  43 W3          N/A

CITY           SKY/WX    TMP DP  RH WIND       PRES   REMARKS
29 PALMS       CLEAR     48  18  30 NW10      30.33R
BARSTOW/DAGGET CLEAR     45  23  42 W9        30.26R
BISHOP         MOCLDY    36  24  62 CALM      30.36R
CHINA LAKE     CLEAR     36  25  64 E3        30.28R
EDWARDS AFB    CLEAR     34  22  59 N2        30.27R
MOJAVE         CLEAR     41  25  52 CALM      30.28R
NEEDLES        PTCLDY    53  27  36 W8        30.22R
VICTORVILLE    CLEAR     39  21  48 CALM      30.28S

$$

CAZ039-040-101400-
VENTURA AND SANTA BARBARA COUNTY COAST


CITY           SKY/WX    TMP DP  RH WIND       PRES   REMARKS
CAMARILLO      CLEAR     55  32  41 CALM      30.11S
NWS OXNARD       N/A     61  28  28 N6        30.10S
OXNARD AIRPORT CLEAR     64  27  24 NE14      30.11S
*POINT MUGU    CLEAR     56  35  45 N9        30.11S
SBA APT/GOLETA CLEAR     50  40  68 CALM      30.10S
*SANTA BARBARA   N/A     53  38  57 CALM      30.18S
*VENTURA         N/A     66  25  21 N5        30.10S

$$

CAZ044-045-101400-
VENTURA COUNTY VALLEYS


CITY           SKY/WX    TMP DP  RH WIND       PRES   REMARKS
*SIMI VALLEY     N/A     71  28  20 NE12      30.07R
*WESTLAKE VILL   N/A     44  34  69 CALM      30.14S
*OJAI            N/A     39  34  81 CALM      30.12R
*FILLMORE        N/A     47  33  57 CALM      30.04R

$$

CAZ053-101400-
VENTURA COUNTY MOUNTAINS


CITY           SKY/WX    TMP DP  RH WIND       PRES   REMARKS
*LOCKWOOD VLY    N/A     23  14  68 MISG        N/A
*ROSE VALLEY     N/A     25  23  93 MISG        N/A

$$

CAZ034-035-036-101400-
CENTRAL COAST AND SANTA YNEZ VALLEY


CITY           SKY/WX    TMP DP  RH WIND       PRES   REMARKS
SAN LUIS OBISP CLEAR     47  41  80 CALM      30.16R
SANTA MARIA    CLEAR     48  40  73 MISG      30.16R

CITY           SKY/WX    TMP DP  RH WIND       PRES   REMARKS
*CAL POLY SLO    N/A     54  43  66 SE3G12      N/A
*PISMO BEACH     N/A     53  44  71 NE1       30.16S
*SANTA YNEZ    FAIR      45  36  70 E5        30.16F

$$

CAZ037-038-051-101400-
SAN LUIS OBISPO COUNTY INTERIOR AND CUYAMA VALLEY


CITY           SKY/WX    TMP DP  RH WIND       PRES   REMARKS
*CUYAMA          N/A     43  33  67 E3        30.21R
PASO ROBLES    CLEAR     39  38  96 NE3       30.23S

$$

CAZ032-033-061-101400-
SOUTHERN DESERTS


CITY           SKY/WX    TMP DP  RH WIND       PRES   REMARKS
BLYTHE         CLEAR     49  23  36 N8        30.18R
IMPERIAL       CLEAR     49  32  52 SW3       30.12R
PALM SPRINGS   CLEAR     58  26  29 N7        30.17R
THERMAL        CLEAR     44  30  57 N6        30.13R

$$

ELSEWHERE ACROSS THE WESTERN UNITED STATES AND MEXICO


CITY           SKY/WX    TMP DP  RH WIND       PRES   REMARKS
DENVER, CO     CLOUDY    38  13  35 SW12      30.16F WCI  30
GRAND CANYON,  PTCLDY    22  16  78 NE3       30.43R
HONOLULU, HI   CLEAR     66  61  82 NW5       30.05F
KAHULUI, MAUI  CLEAR     59  55  88 SE7       30.07F
LAKE TAHOE, CA CLEAR     25  21  85 CALM      30.39F
LAS VEGAS, NV  MOCLDY    48  27  44 SW3       30.26R
MAMMOTH LAKES, FAIR      23  21  93 N3        30.45R
MEXICO CITY, M CLOUDY    45  37  76 E2        30.44R
PHOENIX, AZ    CLEAR     56  30  37 CALM      30.18R
PORTLAND, OR   MOCLDY    49  38  65 E16       30.16S
RENO, NV       CLEAR     34  29  82 NW3       30.37S
SALT LAKE CITY FOG       28  28 100 CALM      30.47R VSB 1/4
SAN DIEGO, CA  PTCLDY    60  33  36 CALM      30.12R
SAN FRANCISCO, CLEAR     50  44  80 CALM      30.23R
SAN JOSE, CA   CLEAR     49  41  74 SW6       30.22R
SEATTLE, WA    CLOUDY    49  39  68 SE3       30.08F
TIJUANA, MEX   CLEAR     61  21  21 NE7       30.14R

$$

STATION/POSITION TIME  TEMP    WIND        PRES    VSBY  WAVE
                       AIR SEA DIR/SP/G                  HT/PER
                 (UTC) (F)     (DEG/KT/KT) (MB)    (MI)  (FT/S)
POINT ARGUELLO B NOT AVBL
WEST SANTA BARBA 1250   60 57  300/  4/  6 1019.1R         5/14
POINT CONCEPTION NOT AVBL
EAST SANTA BARBA 1200   58 57   60/  4/  6 1020.0F
SANTA MONICA BAY 1250   61 60  360/  4/  6 1019.5S         2/14



USA.gov is the U.S. government's official web portal to all federal, state and local government web resources and services.